Regional Weather Roundup
Issued by NWS New Orleans/Baton Rouge, LA

Home | Current Version | Previous Version | Text Only | Print | Product List | Glossary On
Versions: 1 2 3 4 5 6 7 8 9 10 11 12 13 14 15 16 17 18 19 20 21 22 23 24 25 26 27
000
ASUS44 KLIX 251312
RWRLIX
NEW ORLEANS REGIONAL WEATHER ROUNDUP
NATIONAL WEATHER SERVICE NEW ORLEANS LA
700 AM CST SAT FEB 25 2017

NOTE: "FAIR" INDICATES FEW OR NO CLOUDS BELOW 12,000 FEET WITH NO
      SIGNIFICANT WEATHER AND/OR OBSTRUCTIONS TO VISIBILITY.
      SKY/WX - SKY CONDITION AND SIGNIFICANT WEATHER.
      TMP - AIR TEMPERATURE.     DP    - DEWPOINT TEMPERATURE.
      RH  - RELATIVE HUMIDITY.   PRES  - PRESSURE.
      HI  - HEAT INDEX.          WCI   - WIND CHILL INDEX.

*  THESE STATIONS ARE NOT NWS OR FAA STATIONS AND ARE NOT UNDER
   NWS QUALITY CONTROL.

LAZ038-040-048-061>063-065>067-069-251400-
SOUTHEAST LOUISIANA

CITY           SKY/WX    TMP DP  RH WIND       PRES   REMARKS
N.O. AUDUBON   NOT AVBL
N.O. INTL ARPT CLEAR     60  39  45 N8        30.00R
N.O. LAKEFRONT CLEAR     62  39  42 N18       30.00R
N.O. DOWNTOWN*   N/A     61  40  45 N7        30.01R
RESERVE*         N/A     56  34  44 N8        30.01R
SLIDELL        CLEAR     53  40  61 N3        29.99R
BATON ROUGE    CLEAR     53  34  48 N7        30.04R
BOOTHVILLE     PTCLDY    61  45  55 N15G23    29.97R
BELLE CHASSE   CLEAR     60  36  40 N7        29.99R
BOGALUSA*        N/A     50  40  67 N3        30.01R
GALLIANO*      SUNNY     59  42  53 N8        29.98R
NEW ROADS*       N/A     51  35  53 N8        30.05R
GONZALES*        N/A     55  34  44 N7        30.01R
HAMMOND*       CLEAR     50  32  50 CALM      30.02R
HOUMA*         CLEAR     55  45  67 N9        30.00R
PORT FOURCHON* SUNNY     64  50  59 N16G24    29.98R

$$

MSZ070-080>082-251400-
SOUTHERN MISSISSIPPI

CITY           SKY/WX    TMP DP  RH WIND       PRES   REMARKS
MCCOMB         CLEAR     49  30  48 N7        30.03R
GULFPORT       CLEAR     59  35  40 N8        29.96R
BILOXI         PTCLDY    58  39  47 N5        29.96R
PASCAGOULA     PTCLDY    59  39  47 N10       29.96R
STENNIS ARPT*  CLEAR     54  27  35 N5        29.98

$$

COASTAL OBSERVATIONS
LAKE AND NEARSHORE STATIONS

STATION/POSITION TIME  TEMP    WIND        PRES    WAVE
                       AIR SEA DIR/SP/G            HT/PER
                 (UTC) (F)     (DEG/KT/KT) (MB)    (FT/S)
PASCAGOULA       1248   60     350/ 13/ 21 1013.7
WAVELAND YACHT   1248          350/ 12/ 14   N/A
GRAND ISLE       1248   64 69   20/ 15/ 20 1015.0
SOUTHWEST PASS   1248           10/ 24/ 27   N/A
NEW CANAL        1248   62 66   10/ 14/ 17 1015.0
SHELL BEACH      1248          360/ 23/ 25   N/A

OFFSHORE STATIONS

STATION/POSITION TIME  TEMP    WIND        PRES    WAVE
                       AIR SEA DIR/SP/G            HT/PER
                 (UTC) (F)     (DEG/KT/KT) (MB)    (FT/S)

$$





USA.gov is the U.S. government's official web portal to all federal, state and local government web resources and services.